Peru, IL

1:04 PM CDT on June 22, 2017 (GMT -0500)
Illinois Valley Regional-Duncan

Weather History for KVYS - March, 2014

Change the Weather History Date:

Monday, March 31, 2014

  Actual Average Record
Temperature  
Mean Temperature 52 °F -  
Max Temperature 64 °F 53 °F 81 °F (1981)
Min Temperature 41 °F 31 °F 9 °F (1969)
Degree Days  
Heating Degree Days 12    
Growing Degree Days 2 (Base 50)    
Moisture  
Dew Point 39 °F    
Average Humidity 59    
Maximum Humidity 78    
Minimum Humidity 41    
Precipitation  
Precipitation 0.00 in - - ()
Sea Level Pressure  
Sea Level Pressure 29.87 in    
Wind  
Wind Speed 16 mph (South)    
Max Wind Speed 28 mph    
Max Gust Speed 39 mph    
Visibility 10 miles    
Events Thunderstorm    
Averages and records for this station are not official NWS values.
T = Trace of Precipitation, MM = Missing Value Source: NWS Daily Summary

Daily Weather History Graph

Daily Weather History Graph

Search for Another Location

Airport or City:

Trip Planner

Search our weather history database for the weather conditions in past years. The results will help you decide how hot, cold, wet, or windy it might be!

Date:

Astronomy

Mar. 31, 2014 Rise Set
Actual Time 6:41 AM CDT 7:20 PM CDT
Civil Twilight 6:13 AM CDT 7:48 PM CDT
Nautical Twilight 5:40 AM CDT 8:21 PM CDT
Astronomical Twilight 5:06 AM CDT 8:55 PM CDT
Moon 7:04 AM CDT (3/31) 8:40 PM CDT (3/31)
Length of Visible Light 13h 35m
Length of Day
12h 39m
New Moon, 1% of the Moon is Illuminated
Mar 31
New Moon
Apr 7
First Quarter
Apr 15
Full
Apr 22
Last Quarter
Apr 29
New

Hourly Weather History & Observations

Time (CDT) Temp. Windchill Dew Point Humidity Pressure Visibility Wind Dir Wind Speed Gust Speed Precip Events Conditions
12:10 AM 44.6 °F 38.1 °F 35.1 °F 69% 30.02 in 10.0 mi South 13.8 mph - N/A   Clear
12:30 AM 44.6 °F 37.8 °F 34.9 °F 69% 30.02 in 10.0 mi South 15.0 mph - N/A   Clear
12:50 AM 43.7 °F 37.7 °F 34.9 °F 71% 30.02 in 10.0 mi South 11.5 mph - N/A   Clear
1:10 AM 43.7 °F 38.1 °F 35.1 °F 72% 30.02 in 10.0 mi South 10.4 mph - N/A   Clear
1:30 AM 43.3 °F 36.8 °F 34.9 °F 72% 30.02 in 10.0 mi South 12.7 mph - N/A   Clear
1:50 AM 42.3 °F 35.9 °F 34.3 °F 74% 30.01 in 10.0 mi South 11.5 mph - N/A   Clear
2:10 AM 42.3 °F 35.1 °F 34.7 °F 75% 30.01 in 10.0 mi South 13.8 mph - N/A   Clear
2:30 AM 44.6 °F 37.8 °F 34.3 °F 67% 30.02 in 10.0 mi South 15.0 mph - N/A   Clear
2:50 AM 43.0 °F 36.4 °F 34.0 °F 71% 30.01 in 10.0 mi South 12.7 mph - N/A   Clear
3:10 AM 42.8 °F 35.8 °F 34.2 °F 72% 30.01 in 10.0 mi South 13.8 mph - N/A   Clear
3:30 AM 42.3 °F 35.5 °F 34.3 °F 74% 30.01 in 10.0 mi South 12.7 mph - N/A   Clear
3:50 AM 42.8 °F 36.6 °F 34.2 °F 72% 30.01 in 10.0 mi South 11.5 mph - N/A   Clear
4:10 AM 42.4 °F 36.1 °F 34.7 °F 74% 30.00 in 10.0 mi SSE 11.5 mph - N/A   Clear
4:30 AM 42.3 °F 35.1 °F 34.7 °F 75% 30.00 in 10.0 mi SSE 13.8 mph - N/A   Clear
4:50 AM 42.8 °F 36.6 °F 34.7 °F 73% 30.00 in 10.0 mi SSE 11.5 mph - N/A   Clear
5:10 AM 42.1 °F 35.7 °F 34.9 °F 76% 30.00 in 10.0 mi SSE 11.5 mph - N/A   Clear
5:30 AM 41.4 °F 34.0 °F 34.7 °F 77% 29.99 in 10.0 mi SSE 13.8 mph - N/A   Clear
5:50 AM 42.1 °F 34.9 °F 35.2 °F 77% 29.98 in 10.0 mi SSE 13.8 mph - N/A   Clear
6:10 AM 42.1 °F 34.9 °F 35.1 °F 76% 29.99 in 10.0 mi SSE 13.8 mph - N/A   Clear
6:30 AM 41.2 °F 33.7 °F 34.7 °F 78% 29.99 in 10.0 mi South 13.8 mph - N/A   Clear
6:50 AM 41.9 °F 34.6 °F 35.1 °F 77% 29.99 in 7.0 mi SSE 13.8 mph - N/A   Clear
7:10 AM 41.5 °F 33.8 °F 34.7 °F 77% 29.98 in 10.0 mi SSE 15.0 mph - N/A   Clear
7:30 AM 41.0 °F 33.1 °F 34.7 °F 78% 29.97 in 10.0 mi SE 15.0 mph - N/A   Clear
7:50 AM 42.1 °F 34.9 °F 35.6 °F 78% 29.96 in 10.0 mi SSE 13.8 mph - N/A   Clear
8:10 AM 43.5 °F 36.7 °F 36.0 °F 75% 29.95 in 10.0 mi SSE 13.8 mph - N/A   Clear
8:30 AM 44.6 °F 38.1 °F 36.3 °F 73% 29.96 in 10.0 mi SSE 13.8 mph 19.6 mph N/A   Clear
8:50 AM 47.3 °F - 37.4 °F 68% 29.95 in 10.0 mi South 16.1 mph 21.9 mph N/A   Clear
9:10 AM 49.3 °F - 37.9 °F 65% 29.96 in 10.0 mi SSE 15.0 mph - N/A   Clear
9:30 AM 51.1 °F - 38.5 °F 62% 29.96 in 10.0 mi South 17.3 mph 21.9 mph N/A   Clear
9:50 AM 53.2 °F - 39.6 °F 60% 29.97 in 10.0 mi South 16.1 mph 21.9 mph N/A   Clear
10:20 AM 55.0 °F - 40.1 °F 57% 29.96 in 10.0 mi South 18.4 mph 24.2 mph N/A   Clear
10:30 AM 56.1 °F - 39.9 °F 55% 29.95 in 10.0 mi South 20.7 mph - N/A   Clear
10:50 AM 57.4 °F - 40.1 °F 53% 29.95 in 10.0 mi South 23.0 mph 28.8 mph N/A   Clear
11:10 AM 58.8 °F - 41.0 °F 52% 29.94 in 10.0 mi South 21.9 mph 28.8 mph N/A   Clear
11:30 AM 60.1 °F - 41.0 °F 49% 29.93 in 10.0 mi South 23.0 mph 26.5 mph N/A   Clear
11:50 AM 62.4 °F - 42.1 °F 47% 29.92 in 10.0 mi South 21.9 mph 31.1 mph N/A   Clear
12:10 PM 62.8 °F - 41.7 °F 46% 29.90 in 10.0 mi South 24.2 mph 33.4 mph N/A   Clear
12:30 PM 64.4 °F - 41.9 °F 44% 29.88 in 10.0 mi South 26.5 mph 36.8 mph N/A   Clear
12:50 PM 64.4 °F - 41.5 °F 43% 29.88 in 10.0 mi South 26.5 mph 36.8 mph N/A   Clear
1:10 PM 63.3 °F - 41.0 °F 44% 29.85 in 10.0 mi SSE 26.5 mph 39.1 mph N/A   Clear
1:30 PM 63.7 °F - 42.1 °F 45% 29.84 in 10.0 mi SSE 25.3 mph 32.2 mph N/A   Clear
1:50 PM 63.7 °F - 43.0 °F 47% 29.84 in 10.0 mi South 24.2 mph 33.4 mph N/A   Clear
2:10 PM 63.1 °F - 43.5 °F 49% 29.84 in 10.0 mi SSE 21.9 mph 25.3 mph N/A   Clear
2:30 PM 62.6 °F - 42.3 °F 47% 29.81 in 10.0 mi SSE 24.2 mph 31.1 mph N/A   Clear
2:50 PM 63.1 °F - 42.3 °F 46% 29.78 in 10.0 mi SSE 24.2 mph 34.5 mph N/A   Scattered Clouds
3:10 PM 62.6 °F - 43.9 °F 50% 29.79 in 10.0 mi SSE 20.7 mph 26.5 mph N/A   Mostly Cloudy
3:30 PM 62.6 °F - 42.8 °F 48% 29.78 in 10.0 mi SSE 24.2 mph 27.6 mph N/A   Overcast
3:50 PM 62.6 °F - 41.7 °F 46% 29.76 in 10.0 mi SSE 23.0 mph 32.2 mph N/A   Mostly Cloudy
4:10 PM 62.6 °F - 41.0 °F 45% 29.75 in 10.0 mi SSE 23.0 mph 31.1 mph N/A   Scattered Clouds
4:30 PM 62.6 °F - 41.4 °F 46% 29.75 in 10.0 mi SSE 20.7 mph 27.6 mph N/A   Clear
4:50 PM 63.0 °F - 41.2 °F 45% 29.75 in 10.0 mi South 21.9 mph 28.8 mph N/A   Clear
5:10 PM 64.0 °F - 40.6 °F 42% 29.73 in 10.0 mi SSE 24.2 mph 32.2 mph N/A   Clear
5:30 PM 64.6 °F - 40.3 °F 41% 29.72 in 10.0 mi SSE 25.3 mph 31.1 mph N/A   Scattered Clouds
5:50 PM 63.9 °F - 39.4 °F 41% 29.72 in 10.0 mi SSE 25.3 mph 35.7 mph N/A   Scattered Clouds
6:10 PM 62.8 °F - 39.6 °F 42% 29.72 in 10.0 mi SSE 24.2 mph 32.2 mph N/A   Mostly Cloudy
6:30 PM 62.6 °F - 39.4 °F 42% 29.72 in 10.0 mi SSE 25.3 mph 33.4 mph N/A   Overcast
6:50 PM 61.2 °F - 39.7 °F 45% 29.71 in 10.0 mi South 24.2 mph 28.8 mph N/A   Overcast
7:10 PM 60.4 °F - 40.3 °F 47% 29.70 in 10.0 mi SSE 21.9 mph 31.1 mph N/A   Overcast
7:30 PM 60.3 °F - 40.5 °F 48% 29.70 in 10.0 mi SSE 27.6 mph 32.2 mph N/A   Overcast
7:50 PM 59.9 °F - 41.4 °F 50% 29.72 in 10.0 mi South 17.3 mph 27.6 mph N/A   Overcast
8:10 PM 59.0 °F - 41.7 °F 53% 29.71 in 10.0 mi South 17.3 mph 25.3 mph N/A Thunderstorm Overcast
8:30 PM 58.1 °F - 41.7 °F 54% 29.71 in 10.0 mi South 15.0 mph - N/A   Overcast
8:50 PM 58.1 °F - 41.4 °F 54% 29.71 in 10.0 mi South 15.0 mph 21.9 mph N/A   Overcast
9:10 PM 57.0 °F - 41.4 °F 56% 29.71 in 10.0 mi South 16.1 mph 24.2 mph N/A   Scattered Clouds
9:30 PM 57.6 °F - 40.5 °F 53% 29.71 in 10.0 mi South 18.4 mph 28.8 mph N/A   Clear
9:50 PM 57.4 °F - 40.6 °F 54% 29.72 in 10.0 mi South 19.6 mph 25.3 mph N/A   Clear
10:10 PM 56.7 °F - 40.8 °F 55% 29.72 in 10.0 mi South 16.1 mph 24.2 mph N/A   Clear
10:30 PM 56.8 °F - 41.0 °F 55% 29.72 in 10.0 mi South 19.6 mph 25.3 mph N/A Thunderstorm Clear
10:50 PM 57.2 °F - 40.8 °F 54% 29.72 in 10.0 mi SSW 19.6 mph 26.5 mph N/A   Scattered Clouds
11:10 PM 57.7 °F - 41.0 °F 54% 29.73 in 10.0 mi SSW 18.4 mph 26.5 mph N/A Thunderstorm Mostly Cloudy
11:30 PM 57.4 °F - 41.5 °F 56% 29.71 in 10.0 mi South 16.1 mph - N/A   Overcast
11:50 PM 55.4 °F - 41.5 °F 60% 29.72 in 10.0 mi South 15.0 mph - N/A   Scattered Clouds